{"data":{"norad_id":39446,"epoch":"2026-05-24T19:40:47.397792Z","epoch_age_seconds":86448,"freshness":"FRESH","line1":"1 39446U 13066AG  26144.81999303  .00004477  00000+0  38651-3 0  9998","line2":"2 39446  97.8685 100.7423 0050306  39.4444 321.0423 14.96792599674081","mean_motion":14.96792599,"eccentricity":0.0050306,"inclination_deg":97.8685,"raan_deg":100.7423,"arg_perigee_deg":39.4444,"mean_anomaly_deg":321.0423,"bstar":0.00038651,"rev_number":67408,"period_min":96.205713534531,"perigee_km":541.82666790803,"apogee_km":611.8018233807,"semimajor_km":6954.9512456444,"source":"CELESTRAK","updated_at":"2026-05-25T13:38:25.495025Z"}}